Temperature
22 22 21 21 22 22 23 23 24 24 24 24 24 24 23 21 21 19 18 18 18 18 18 18 17 17 17 17 17 17 17 17 17 17 17 18 18 18 18 18 18 18 18 18 18 18 18 18 18
22 22 22 22 22 22 22 23 23 24 24 24 24 24 23 21 20 18 18 18 18 18 18 18 17 17 17 17 17 17 17 17 17 17 17 17 17 17 18 18 18 17 17 17 18 18 18 18 18
22 22 22 22 23 22 23 23 23 24 24 24 23 23 22 20 19 18 18 18 18 17 17 18 17 17 17 17 17 17 17 17 17 17 17 17 17 17 17 17 17 17 17 17 17 17 17 17 18
22 23 23 23 23 23 24 24 24 24 24 24 23 22 20 20 19 18 18 18 18 17 17 17 17 17 17 17 17 17 17 17 17 17 17 17 17 17 17 17 17 17 17 17 17 17 17 17 17
23 23 23 23 23 24 24 25 24 24 24 23 23 21 20 19 19 18 18 18 18 17 17 17 17 17 17 17 17 17 17 17 17 17 17 17 17 17 17 17 17 17 17 17 17 17 17 17 17
24 24 22 22 23 24 24 25 25 24 24 23 23 21 19 19 19 18 18 18 18 17 17 18 17 17 17 17 17 17 17 17 17 17 17 17 17 17 17 17 17 17 17 17 17 17 17 17 17
23 23 23 23 23 23 24 24 24 24 24 23 23 22 20 19 18 18 18 18 18 18 17 17 17 17 17 17 17 17 17 17 17 17 17 17 17 17 17 17 17 17 17 17 17 17 17 17 17
24 23 23 23 23 23 25 25 24 24 23 23 23 21 20 19 19 18 18 18 18 18 18 17 17 17 17 17 17 17 17 17 17 17 16 16 16 16 16 16 16 16 16 16 16 16 16 16 16
24 23 23 23 23 23 25 25 24 23 23 22 22 21 20 19 19 19 18 18 18 18 18 18 17 17 17 17 17 17 17 17 16 16 16 16 16 16 16 16 16 16 16 16 16 16 16 16 16
24 23 23 25 25 24 25 24 24 24 23 22 21 20 20 19 19 19 19 18 18 18 18 18 18 17 17 17 17 16 16 16 16 16 16 16 16 16 16 16 16 16 16 16 16 16 16 16 16
25 24 24 25 25 25 24 24 24 24 22 22 21 20 20 19 19 19 19 19 18 18 18 18 18 18 17 17 17 16 16 16 16 16 16 16 16 16 16 16 16 16 16 16 16 16 16 16 16
25 25 25 25 25 25 25 24 24 23 22 22 21 21 20 20 19 19 19 19 18 18 18 18 18 18 17 17 17 17 16 16 16 16 16 16 16 16 16 16 16 16 15 15 15 16 16 16 16
25 25 25 24 24 24 24 24 23 23 22 22 21 21 20 20 19 19 19 19 18 18 18 18 18 18 17 17 17 17 16 16 16 16 16 16 16 16 16 16 15 15 15 15 15 15 15 16 16
25 25 24 24 24 24 24 24 23 22 22 22 21 21 20 20 20 19 19 19 18 18 18 18 18 17 17 17 17 17 16 16 16 16 16 16 16 16 16 15 15 15 15 15 15 15 15 15 15
25 24 24 24 25 24 24 23 23 23 22 22 22 21 20 20 20 19 19 19 18 18 18 18 17 17 17 17 17 16 16 16 16 16 16 16 16 16 15 15 15 15 15 15 15 15 15 15 15
25 24 23 24 25 25 24 22 23 23 23 22 22 21 20 20 20 19 19 19 18 18 18 17 17 17 17 17 16 16 16 16 16 16 16 16 16 16 15 15 15 15 15 15 15 15 15 15 15
24 23 23 24 25 25 24 22 23 23 23 23 22 21 20 20 20 19 19 19 18 18 18 17 17 17 17 16 16 16 16 16 16 16 16 16 16 15 15 15 15 15 15 15 14 14 14 14 15
23 24 24 24 25 25 23 23 23 23 23 23 22 22 21 20 20 19 19 19 18 18 18 17 17 17 16 16 16 16 16 16 15 15 15 15 15 15 15 15 15 14 14 14 14 14 14 14 14
25 25 24 25 25 24 23 23 23 23 23 23 23 22 21 20 20 19 19 18 18 18 17 17 17 16 16 16 16 16 16 15 15 15 15 15 15 15 15 15 14 14 14 14 14 14 14 14 14
25 24 24 25 25 24 23 23 24 23 23 23 23 22 22 21 20 19 19 18 18 18 17 17 17 16 16 16 16 16 15 15 15 15 15 15 15 15 15 14 14 14 14 14 14 14 14 14 14
25 25 24 24 25 25 24 22 23 23 23 23 22 22 22 21 20 19 19 18 18 17 17 17 16 16 16 16 16 16 15 15 15 15 15 15 15 15 14 14 14 14 14 14 14 14 14 14 14
24 25 25 24 23 23 24 21 22 23 22 22 22 22 22 21 20 19 19 18 17 17 17 17 16 16 16 16 16 15 15 15 15 15 15 15 15 14 14 14 14 14 14 14 14 13 13 14 13
24 25 25 24 23 23 23 23 22 22 22 22 22 22 22 21 20 19 19 18 18 17 17 17 16 16 16 16 16 15 15 15 15 15 15 15 15 14 14 14 14 14 14 14 13 13 13 13 13
25 25 24 24 23 22 23 23 22 22 23 22 22 22 21 21 20 20 19 18 17 17 17 17 16 16 16 16 16 15 15 15 15 15 15 15 14 14 14 14 14 14 14 13 13 13 13 13 13
24 23 22 22 21 22 24 24 22 24 24 23 23 22 21 21 20 20 19 18 17 17 17 16 16 16 16 16 15 15 15 15 15 15 15 14 14 14 14 14 14 14 14 13 13 13 13 13 13
24 23 21 21 22 23 24 23 22 24 24 23 23 22 22 21 20 20 19 18 17 17 17 16 16 16 16 15 15 15 15 15 15 14 14 14 14 14 14 14 14 14 13 13 13 13 13 13 13
23 23 24 23 23 22 23 23 22 23 23 23 22 22 21 21 20 19 19 18 17 17 17 16 16 16 16 15 15 15 15 15 14 14 14 14 14 14 14 14 14 14 13 13 13 13 13 13 13
24 24 23 22 21 21 22 22 21 22 22 22 22 21 21 21 20 20 19 18 17 17 16 16 16 16 15 15 15 15 15 15 14 14 14 14 14 14 14 13 13 13 13 13 13 13 13 13 13
23 23 23 22 22 21 21 21 23 22 22 22 21 21 21 21 20 20 19 18 17 17 16 16 16 16 15 15 15 15 15 14 14 14 14 14 14 14 14 13 13 13 13 13 13 13 13 13 12
23 23 22 21 21 21 20 21 22 22 22 21 21 21 21 20 20 19 19 18 17 17 16 16 16 16 15 15 15 15 14 14 14 14 14 14 14 13 13 13 13 13 13 13 13 13 13 12 12
Wind_Speed
9 9 6 2 2 1 4 5 7 7 7 9 9 9 12 12 9 7 2 5 7 8 10 11 11 11 11 11 12 12 12 12 12 12 12 12 12 12 12 12 12 11 11 11 11 10 10 10 10
9 5 3 2 1 2 5 6 9 9 7 6 7 10 12 11 10 7 4 4 7 9 10 11 11 11 11 12 12 12 12 12 12 12 12 12 12 12 12 12 12 12 12 12 12 11 11 10 10
10 6 3 1 2 4 6 7 8 8 7 6 7 10 9 7 8 5 4 4 8 10 12 11 11 11 11 11 12 12 13 13 12 12 12 12 12 11 12 12 12 12 13 12 12 12 11 11 10
5 3 2 1 4 7 8 7 7 7 6 6 7 9 9 8 6 7 4 6 8 10 12 11 11 11 11 11 12 12 12 13 13 13 12 12 12 12 12 12 12 12 12 12 12 11 11 11 10
4 2 1 2 5 7 7 6 6 7 6 7 9 10 8 9 9 8 5 6 8 9 10 11 11 11 11 11 11 12 12 12 13 13 13 12 12 11 11 11 11 12 12 12 11 11 11 10 10
2 1 1 2 6 6 5 5 6 7 6 6 8 10 7 8 8 7 5 6 7 8 10 11 10 11 11 11 11 11 11 12 12 12 12 12 11 10 10 11 12 12 11 11 10 10 10 9 9
2 1 1 3 5 5 5 5 5 6 7 6 5 7 7 8 7 6 6 6 7 7 7 8 10 10 11 11 11 10 10 11 11 11 11 11 11 12 13 13 13 12 12 12 11 10 9 9 8
1 1 2 2 3 5 5 5 6 6 6 6 5 6 6 8 7 7 7 7 7 6 5 6 8 10 9 9 9 9 9 9 9 8 8 9 11 14 16 15 13 13 12 11 11 10 9 8 8
1 0 1 2 3 5 5 5 6 7 7 7 9 10 11 11 9 7 7 6 6 6 4 5 5 7 8 8 9 8 7 6 6 6 6 6 7 9 12 13 12 12 12 10 10 9 7 7 6
1 1 2 3 4 5 5 4 4 5 7 7 9 12 12 9 7 6 7 7 6 5 5 5 5 6 6 7 7 5 6 6 4 5 6 6 7 8 10 11 10 10 9 8 7 6 5 4 4
2 2 3 5 6 5 5 4 4 4 5 6 8 10 10 9 7 5 6 7 7 5 5 5 4 5 6 5 5 4 5 4 4 6 7 7 6 6 7 5 6 5 5 4 4 3 3 4 5
2 2 3 3 3 3 3 4 5 6 5 7 8 10 8 8 7 6 5 6 6 6 5 5 4 4 5 5 4 4 3 2 3 4 7 6 4 4 4 4 4 4 4 4 4 4 5 7 7
3 3 2 3 3 2 3 5 5 6 6 8 9 9 8 7 6 6 6 7 6 6 5 5 4 5 5 5 3 4 4 3 4 4 5 6 4 4 4 4 5 5 4 4 4 5 6 7 7
2 3 3 3 3 3 2 3 4 4 5 8 8 8 7 6 6 6 6 6 6 6 5 5 5 5 5 4 4 3 4 4 5 4 5 7 6 4 4 4 5 5 5 5 5 5 5 5 6
3 4 4 4 4 4 3 2 4 5 7 7 7 8 8 6 6 6 6 6 6 6 6 5 5 5 5 5 5 4 4 5 3 4 6 7 6 5 4 4 4 4 5 6 6 6 5 4 5
5 5 4 5 5 4 5 4 5 6 7 7 7 7 7 6 6 5 6 6 6 6 6 5 5 5 5 5 4 3 4 5 4 5 5 5 6 8 5 4 4 5 5 4 4 4 4 4 4
6 6 5 4 5 4 5 3 6 6 7 7 7 8 8 7 6 6 5 5 5 5 6 6 5 5 5 5 4 4 4 4 4 5 4 5 7 7 6 4 3 5 4 4 4 4 3 3 3
5 5 4 5 5 4 4 4 6 7 7 7 7 9 8 8 7 6 5 5 5 5 6 6 5 4 4 4 4 3 4 3 4 4 3 5 6 7 5 3 4 5 4 4 4 4 3 2 2
6 6 5 2 3 4 5 5 7 8 7 6 7 7 9 9 9 7 6 6 5 5 6 5 5 4 4 3 3 2 2 2 2 2 4 5 5 5 4 4 4 4 3 3 3 3 3 2 2
8 6 6 3 3 4 5 6 6 8 8 7 6 7 9 9 10 9 8 6 5 5 6 5 5 4 5 3 2 2 2 2 3 2 4 4 4 5 4 4 3 4 3 3 4 3 2 2 2
8 6 5 4 3 6 6 6 6 7 7 6 5 5 7 8 8 10 9 8 6 5 6 6 5 5 5 4 2 2 3 2 2 2 2 2 3 4 4 4 3 3 2 2 2 2 3 2 3
6 4 5 6 6 5 6 5 6 7 7 8 7 7 6 7 8 9 8 8 7 5 5 5 5 5 4 4 3 3 3 2 2 2 2 1 2 3 4 3 3 2 3 2 1 2 1 2 2
5 6 8 9 8 9 8 6 4 7 8 8 8 7 6 7 8 10 9 8 7 6 5 5 5 5 4 4 3 2 2 1 1 2 2 2 1 2 3 2 1 2 2 1 2 3 2 2 1
6 8 10 9 7 8 9 7 3 5 7 7 7 8 8 7 7 9 9 8 7 7 6 5 5 4 4 4 4 3 3 2 2 2 1 1 1 1 2 2 1 1 1 1 2 2 1 1 1
8 7 5 5 6 6 5 4 2 4 5 6 7 8 9 8 8 8 10 9 7 7 7 6 6 5 5 4 4 4 3 3 2 2 2 1 1 1 1 1 0 0 1 1 2 1 1 1 1
7 7 5 5 5 4 5 3 4 5 6 5 4 4 7 9 9 9 9 9 8 8 7 7 6 5 4 4 3 3 3 2 2 2 2 2 1 2 1 2 1 1 0 1 2 1 1 1 1
6 7 7 8 10 7 3 4 5 5 6 5 5 4 4 6 8 9 9 9 9 8 7 7 7 6 5 4 3 2 3 3 2 2 2 2 1 1 1 1 1 2 1 1 2 1 1 1 0
8 7 5 5 5 6 4 3 4 7 7 6 5 4 3 4 7 8 8 8 8 8 6 6 6 6 5 5 3 2 2 2 2 2 2 2 1 1 1 1 2 1 2 1 1 1 0 1 1
7 7 6 5 5 4 4 1 3 4 5 5 4 3 3 3 4 6 7 8 7 7 7 7 6 5 5 5 4 3 2 2 2 2 1 1 1 1 1 1 1 2 2 2 2 1 0 1 1
6 7 7 5 6 5 4 0 5 4 4 3 3 3 2 2 3 4 6 7 7 8 7 7 6 6 5 4 4 3 3 3 2 2 2 1 1 1 1 2 1 1 1 1 2 2 1 1 1
Wind_Direction
263 244 240 260 269 165 78 68 70 58 58 51 48 60 67 55 52 89 102 49 70 83 84 70 58 54 53 56 58 58 58 59 58 59 58 59 61 62 62 64 70 76 78 77 77 77 77 75 72
272 257 259 251 260 84 75 71 71 64 68 67 60 64 74 69 74 92 83 53 70 79 76 69 63 59 59 61 61 60 60 60 60 62 62 60 62 62 63 66 70 74 74 74 73 71 72 70 69
260 260 261 270 48 69 88 82 82 78 70 72 71 58 57 67 77 88 95 87 80 82 82 76 69 67 66 66 65 61 60 60 60 60 61 62 63 66 68 71 74 76 76 75 73 72 70 67 65
257 258 244 89 71 64 83 98 102 98 81 65 83 78 70 62 77 102 108 94 86 90 92 85 77 73 71 70 68 64 64 62 62 61 62 62 64 66 71 75 77 80 80 79 76 76 74 69 64
242 253 168 95 88 78 79 96 101 85 80 71 78 89 83 78 94 105 102 94 94 95 99 96 88 82 78 76 74 71 67 65 64 63 63 63 65 67 73 80 81 81 81 81 78 77 75 70 64
272 261 157 90 91 88 83 85 95 90 90 91 93 99 97 101 96 103 103 96 99 100 103 109 102 93 88 85 80 76 73 69 67 65 64 64 63 66 79 85 81 78 78 79 79 79 75 71 64
278 290 95 97 100 93 87 78 74 80 71 63 79 98 113 111 110 118 109 96 91 95 108 121 122 109 99 94 87 81 79 74 71 69 66 67 67 78 87 84 79 77 78 77 77 76 74 70 65
294 333 72 89 104 97 97 95 87 82 73 56 61 100 123 126 128 121 108 99 96 94 99 110 119 122 120 112 101 93 88 82 80 78 73 70 72 82 86 82 78 77 77 76 75 74 75 73 67
297 31 75 93 101 100 106 103 98 94 88 77 68 86 116 128 132 127 122 111 101 97 95 94 101 109 116 114 106 115 110 97 94 94 84 79 79 84 83 83 82 80 79 78 79 74 75 78 71
148 62 67 75 96 108 110 103 112 115 109 99 93 99 115 127 133 135 126 121 115 109 104 99 96 103 104 100 109 118 104 106 96 92 90 82 72 76 85 91 88 87 85 79 77 70 69 70 79
138 102 68 57 66 93 108 99 92 103 102 108 116 122 128 135 137 130 120 118 113 107 99 100 101 105 105 99 104 86 86 87 73 69 86 84 84 89 96 104 99 97 93 82 74 66 66 70 69
129 99 99 89 72 79 102 99 91 84 88 111 119 128 136 137 136 122 113 110 108 99 95 92 87 90 98 99 101 101 93 80 78 57 72 74 65 62 69 76 87 86 73 63 60 64 58 60 63
158 128 109 97 106 102 112 113 105 97 105 117 125 128 133 135 129 120 115 109 107 103 98 89 79 77 81 85 89 96 88 68 74 67 72 82 76 64 66 65 64 68 67 61 49 55 54 54 55
147 142 169 174 162 162 144 134 131 135 138 133 135 132 133 135 131 128 124 121 117 115 104 96 92 85 85 87 83 79 78 71 64 55 63 81 78 72 63 62 61 57 54 56 59 61 60 57 57
177 188 198 208 208 184 163 187 163 163 156 151 147 139 141 139 139 138 133 130 126 122 112 99 97 88 83 82 78 77 73 78 70 57 60 75 82 83 76 61 61 57 54 51 50 52 60 68 66
219 218 217 211 213 192 204 219 170 170 162 162 153 144 145 149 153 142 138 132 126 126 119 109 106 95 87 85 79 74 67 68 63 55 49 67 76 77 71 66 62 62 58 57 49 44 46 54 57
224 227 221 205 207 206 216 219 167 172 173 171 162 153 154 157 157 143 137 131 128 125 120 117 108 106 100 97 90 76 74 70 67 63 49 47 62 74 75 69 66 65 58 51 55 50 45 50 53
253 246 227 209 187 208 218 208 169 180 188 184 173 162 160 161 160 147 142 130 122 123 121 119 110 108 102 98 92 79 76 69 60 59 59 53 55 69 74 74 65 64 61 57 56 56 50 48 45
268 275 272 231 173 214 234 224 190 182 193 193 184 174 166 164 160 151 146 137 130 123 120 120 122 120 109 96 93 92 92 90 76 58 60 59 60 71 76 69 64 63 61 64 67 59 45 39 44
263 262 269 249 192 236 241 243 206 186 195 198 196 184 174 167 160 156 151 143 145 139 132 129 123 116 107 100 106 115 109 107 106 79 63 53 61 67 80 85 80 74 58 45 52 50 26 17 38
262 260 270 273 248 245 240 240 212 197 187 186 193 190 177 164 160 160 159 154 152 148 146 144 143 134 126 121 108 99 86 76 84 91 75 45 59 68 63 79 85 98 91 77 59 53 46 17 3
270 277 272 267 260 254 239 255 212 187 185 187 189 190 183 167 162 157 157 158 156 150 145 145 141 135 130 130 124 130 126 119 132 130 125 114 77 84 71 68 88 108 103 107 108 84 51 50 15
279 289 274 264 264 267 253 251 206 174 190 187 182 181 178 166 165 161 161 159 158 150 150 152 140 137 139 137 136 136 122 133 121 111 132 132 107 95 93 74 65 83 97 103 77 77 53 57 50
275 272 264 254 255 257 249 246 201 190 184 174 177 179 176 165 163 164 158 151 149 148 148 145 139 143 142 147 153 153 142 144 134 134 127 123 123 98 98 97 81 88 117 124 109 108 99 75 50
250 262 261 240 229 241 238 236 151 129 121 145 166 178 171 168 166 160 154 154 153 155 153 153 151 150 150 163 167 162 162 170 172 162 157 152 135 113 147 111 114 87 148 141 124 133 144 141 115
247 256 265 275 271 262 230 216 130 111 103 111 127 148 166 168 164 160 158 159 160 163 163 165 163 158 157 170 179 170 162 163 178 166 153 168 156 155 176 168 164 153 137 117 123 131 195 147 144
264 254 268 279 284 281 236 150 147 130 124 130 135 141 166 164 158 159 163 164 166 169 173 172 167 164 165 177 191 178 161 158 170 170 158 155 171 179 190 181 182 167 163 142 121 146 221 143 156
256 281 277 259 281 280 265 226 173 156 155 151 142 147 158 163 163 160 161 166 169 169 173 170 170 169 165 173 181 175 158 155 149 146 164 166 187 199 197 206 201 176 160 157 138 161 211 137 132
232 247 263 277 270 277 290 12 80 131 138 141 142 140 159 157 160 162 160 161 169 172 175 177 176 171 167 171 174 165 164 158 145 144 148 171 201 204 214 234 190 173 166 168 149 155 143 200 209
249 252 257 262 270 266 271 195 79 90 92 92 108 121 120 120 143 150 155 160 171 177 179 179 176 173 167 169 170 163 156 144 155 167 172 188 181 198 235 234 190 185 166 165 154 181 195 210 249
Height
1480 1480 1481 1483 1484 1487 1489 1485 1481 1482 1483 1485 1485 1485 1489 1493 1498 1509 1508 1506 1506 1504 1503 1502 1501 1500 1500 1499 1499 1498 1498 1497 1497 1496 1495 1495 1495 1494 1494 1494 1494 1495 1496 1497 1498 1499 1500 1501 1502
1481 1482 1484 1483 1487 1494 1494 1485 1485 1485 1486 1487 1487 1488 1491 1497 1501 1505 1506 1507 1506 1505 1504 1503 1503 1502 1501 1501 1500 1500 1499 1499 1498 1497 1497 1496 1496 1496 1496 1495 1496 1497 1497 1499 1500 1500 1501 1502 1503
1482 1483 1484 1483 1487 1492 1493 1486 1486 1487 1488 1488 1490 1492 1495 1501 1503 1505 1507 1507 1507 1506 1505 1504 1504 1503 1503 1502 1502 1501 1501 1500 1499 1499 1498 1498 1497 1497 1497 1497 1498 1498 1499 1500 1501 1502 1502 1503 1504
1484 1484 1484 1486 1490 1486 1485 1486 1486 1488 1489 1490 1491 1495 1500 1504 1505 1506 1507 1508 1507 1507 1506 1506 1505 1505 1504 1504 1503 1503 1502 1501 1501 1500 1499 1499 1498 1498 1499 1499 1499 1500 1501 1501 1502 1503 1504 1505 1505
1484 1484 1485 1489 1488 1485 1484 1485 1487 1488 1490 1492 1493 1498 1503 1506 1506 1507 1508 1508 1508 1508 1507 1507 1507 1506 1506 1505 1505 1504 1504 1503 1503 1502 1501 1500 1499 1499 1499 1500 1501 1502 1502 1503 1504 1504 1505 1506 1507
1485 1483 1490 1494 1489 1486 1485 1487 1487 1489 1491 1493 1495 1499 1505 1507 1507 1508 1509 1509 1509 1509 1509 1508 1508 1508 1507 1507 1507 1506 1506 1505 1504 1503 1502 1500 1498 1495 1497 1500 1502 1503 1504 1504 1505 1506 1506 1507 1508
1485 1485 1489 1490 1491 1489 1487 1488 1489 1491 1492 1494 1496 1499 1505 1507 1508 1509 1510 1510 1511 1511 1510 1510 1509 1509 1509 1509 1509 1508 1508 1507 1506 1506 1504 1502 1497 1493 1496 1501 1503 1504 1505 1506 1507 1507 1508 1509 1509
1484 1485 1488 1489 1491 1491 1488 1489 1491 1492 1495 1496 1497 1500 1505 1507 1508 1510 1511 1511 1512 1512 1512 1512 1511 1511 1511 1511 1511 1510 1510 1509 1509 1508 1507 1504 1501 1499 1501 1504 1505 1506 1507 1508 1508 1509 1510 1510 1511
1485 1489 1492 1490 1490 1490 1489 1490 1492 1494 1496 1498 1499 1501 1504 1507 1509 1510 1511 1512 1512 1513 1513 1513 1514 1513 1513 1513 1513 1513 1512 1512 1511 1511 1510 1508 1506 1506 1506 1507 1508 1509 1509 1510 1510 1511 1511 1512 1512
1485 1491 1490 1485 1485 1487 1489 1491 1492 1494 1497 1499 1501 1504 1505 1508 1509 1510 1511 1512 1513 1514 1514 1515 1515 1515 1515 1515 1514 1514 1515 1514 1514 1514 1513 1512 1511 1511 1511 1511 1511 1511 1511 1512 1512 1512 1513 1513 1514
1484 1488 1486 1486 1487 1488 1490 1491 1493 1495 1497 1500 1502 1504 1506 1508 1510 1510 1511 1512 1513 1515 1515 1516 1516 1517 1516 1516 1516 1516 1517 1516 1516 1516 1516 1515 1514 1514 1514 1514 1514 1514 1514 1514 1514 1514 1514 1515 1515
1485 1486 1487 1488 1489 1489 1490 1492 1494 1496 1499 1501 1502 1504 1506 1508 1510 1511 1511 1513 1514 1515 1516 1517 1517 1517 1518 1518 1518 1518 1518 1518 1518 1518 1518 1518 1517 1517 1517 1517 1516 1516 1516 1516 1516 1516 1517 1517 1517
1485 1487 1488 1489 1490 1491 1491 1493 1495 1497 1499 1501 1503 1505 1507 1508 1510 1511 1512 1513 1515 1516 1517 1517 1518 1518 1518 1518 1519 1519 1520 1520 1520 1520 1520 1519 1519 1519 1519 1519 1518 1518 1518 1518 1518 1518 1518 1519 1519
1485 1487 1488 1489 1490 1491 1492 1493 1495 1498 1499 1501 1503 1505 1506 1508 1510 1511 1512 1513 1515 1516 1517 1518 1518 1519 1519 1519 1520 1520 1521 1521 1521 1521 1521 1521 1521 1521 1520 1520 1520 1520 1520 1520 1520 1520 1520 1520 1521
1486 1487 1489 1489 1489 1490 1492 1495 1495 1497 1498 1500 1502 1504 1506 1508 1510 1511 1512 1513 1515 1516 1517 1518 1519 1519 1520 1520 1521 1521 1522 1522 1523 1523 1523 1523 1522 1522 1522 1522 1522 1522 1522 1522 1521 1522 1522 1522 1522
1485 1488 1493 1488 1487 1488 1494 1500 1494 1495 1497 1499 1501 1503 1506 1508 1509 1511 1512 1514 1515 1516 1517 1518 1519 1520 1520 1521 1522 1522 1523 1523 1524 1524 1524 1524 1524 1524 1523 1523 1523 1523 1523 1523 1523 1523 1523 1523 1524
1488 1492 1492 1489 1485 1485 1490 1495 1492 1493 1495 1497 1499 1502 1504 1507 1509 1510 1512 1513 1515 1516 1517 1518 1519 1520 1521 1522 1522 1523 1524 1524 1524 1524 1525 1525 1525 1525 1524 1524 1525 1525 1524 1525 1525 1524 1524 1525 1525
1491 1487 1487 1487 1483 1484 1488 1491 1490 1492 1493 1495 1497 1500 1503 1505 1508 1510 1512 1513 1514 1516 1517 1518 1519 1520 1521 1522 1523 1524 1524 1525 1525 1525 1526 1526 1526 1526 1526 1526 1526 1526 1525 1525 1526 1526 1526 1526 1527
1482 1483 1485 1483 1480 1484 1487 1488 1487 1489 1491 1493 1495 1497 1500 1503 1506 1508 1510 1512 1514 1515 1516 1518 1519 1520 1521 1522 1523 1524 1524 1525 1525 1526 1526 1526 1526 1527 1527 1527 1527 1527 1527 1526 1526 1527 1527 1528 1528
1479 1484 1484 1481 1478 1482 1485 1486 1484 1485 1488 1490 1492 1494 1497 1500 1503 1506 1509 1511 1513 1514 1516 1517 1519 1520 1521 1522 1523 1524 1525 1526 1526 1526 1527 1527 1527 1527 1527 1527 1527 1527 1527 1527 1527 1527 1528 1528 1529
1480 1482 1482 1483 1480 1479 1484 1488 1484 1483 1485 1488 1490 1492 1494 1497 1500 1503 1506 1509 1511 1513 1514 1516 1518 1519 1520 1521 1522 1524 1525 1525 1526 1526 1527 1527 1527 1528 1528 1528 1528 1528 1528 1528 1528 1528 1528 1529 1529
1482 1476 1478 1480 1486 1487 1484 1497 1485 1481 1483 1485 1488 1491 1493 1495 1498 1501 1504 1507 1509 1511 1513 1515 1516 1518 1519 1521 1522 1523 1524 1525 1526 1526 1527 1527 1528 1528 1528 1528 1528 1528 1528 1528 1529 1529 1529 1529 1529
1478 1475 1476 1478 1482 1486 1482 1488 1485 1479 1484 1483 1485 1488 1491 1493 1496 1499 1502 1505 1508 1509 1511 1513 1515 1517 1518 1520 1521 1522 1523 1524 1525 1526 1526 1527 1527 1528 1528 1528 1528 1529 1529 1529 1529 1529 1529 1529 1530
1475 1476 1475 1475 1482 1494 1481 1484 1487 1479 1478 1479 1482 1485 1489 1491 1495 1497 1500 1503 1506 1508 1510 1512 1514 1516 1517 1519 1520 1521 1522 1523 1524 1525 1526 1526 1527 1527 1527 1528 1528 1528 1529 1529 1529 1529 1529 1529 1530
1476 1484 1493 1496 1496 1490 1472 1477 1482 1472 1471 1475 1479 1482 1486 1489 1493 1496 1499 1501 1504 1506 1508 1511 1513 1514 1516 1518 1519 1520 1521 1522 1523 1524 1524 1525 1526 1526 1526 1527 1527 1528 1528 1528 1529 1529 1529 1529 1529
1476 1480 1496 1504 1496 1484 1473 1477 1477 1470 1471 1475 1478 1480 1484 1487 1490 1493 1496 1499 1502 1504 1507 1509 1511 1513 1514 1516 1518 1519 1520 1521 1521 1522 1523 1524 1524 1525 1525 1526 1526 1527 1527 1528 1528 1528 1528 1529 1529
1478 1478 1475 1484 1483 1485 1477 1474 1474 1469 1472 1475 1478 1480 1483 1486 1488 1491 1494 1497 1500 1502 1505 1507 1509 1511 1513 1514 1516 1518 1519 1519 1520 1521 1522 1522 1523 1524 1524 1525 1525 1526 1526 1527 1527 1527 1527 1528 1528
1473 1474 1477 1485 1494 1497 1483 1478 1479 1475 1474 1475 1477 1480 1482 1485 1487 1489 1492 1495 1497 1500 1503 1505 1507 1509 1511 1512 1514 1515 1517 1517 1518 1519 1520 1520 1521 1522 1522 1523 1524 1524 1525 1525 1526 1526 1526 1526 1527
1474 1476 1477 1480 1482 1494 1496 1488 1469 1472 1472 1474 1476 1479 1482 1483 1485 1488 1490 1493 1495 1498 1501 1503 1506 1507 1509 1510 1512 1513 1514 1515 1516 1517 1518 1519 1519 1520 1520 1521 1522 1523 1523 1523 1524 1524 1525 1525 1525
1470 1473 1477 1489 1487 1482 1490 1490 1469 1471 1472 1475 1477 1479 1480 1482 1484 1486 1489 1491 1494 1496 1498 1501 1503 1505 1506 1508 1510 1511 1512 1513 1514 1515 1515 1516 1517 1518 1518 1519 1520 1520 1521 1522 1522 1522 1523 1523 1523